Weather History for KOFF - January, 2013

Change the Weather History Date:

Sunday, January 20, 2013

  Actual Average Record
Temperature  
Mean Temperature 16 °F -  
Max Temperature 20 °F 31 °F 57 °F (1997)
Min Temperature 11 °F 14 °F -9 °F (2008)
Degree Days  
Heating Degree Days 50    
Moisture  
Dew Point 8 °F    
Average Humidity 68    
Maximum Humidity 84    
Minimum Humidity 47    
Precipitation  
Precipitation 0.00 in - - ()
Sea Level Pressure  
Sea Level Pressure 30.43 in    
Wind  
Wind Speed 7 mph (NNW)    
Max Wind Speed 12 mph    
Max Gust Speed -    
Visibility 10 miles    
Events Snow    
Averages and records for this station are not official NWS values.
T = Trace of Precipitation, MM = Missing Value Source: NWS Daily Summary

Daily Weather History Graph

Daily Weather History Graph

Search for Another Location

Airport or City:

Trip Planner

Search our weather history database for the weather conditions in past years. The results will help you decide how hot, cold, wet, or windy it might be!

Date:

Astronomy

Jan. 20, 2013 Rise Set
Actual Time 7:43 AM CST 5:26 PM CST
Civil Twilight 7:13 AM CST 5:56 PM CST
Nautical Twilight 6:40 AM CST 6:29 PM CST
Astronomical Twilight 6:07 AM CST 7:02 PM CST
Moon 12:28 PM CST (1/20) 2:16 AM CST (1/20)
Length of Visible Light 10h 42m
Length of Day
9h 42m
Waxing Gibbous, 66% of the Moon is Illuminated
Jan 20
Waxing Gibbous
Jan 26
Full
Feb 3
Last Quarter
Feb 10
New
Feb 17
First Quarter

Hourly Weather History & Observations

Time (CST) Temp. Windchill Dew Point Humidity Pressure Visibility Wind Dir Wind Speed Gust Speed Precip Events Conditions
12:55 AM 20.7 °F 10.2 °F 12.4 °F 70% 30.36 in 10.0 mi North 9.2 mph - N/A   Clear
1:55 AM 18.9 °F 8.0 °F 10.4 °F 70% 30.37 in 10.0 mi North 9.2 mph - N/A   Clear
2:55 AM 18.1 °F 7.1 °F 9.3 °F 68% 30.37 in 10.0 mi North 9.2 mph - N/A   Clear
3:55 AM 17.4 °F 8.0 °F 8.2 °F 67% 30.37 in 10.0 mi North 6.9 mph - N/A   Clear
4:55 AM 16.5 °F 8.1 °F 4.3 °F 59% 30.37 in 10.0 mi North 5.8 mph - N/A   Clear
5:55 AM 15.4 °F 6.8 °F 7.3 °F 70% 30.37 in 10.0 mi NNE 5.8 mph - N/A   Partly Cloudy
6:55 AM 14.9 °F 5.0 °F 6.6 °F 70% 30.39 in 10.0 mi NNE 6.9 mph - N/A   Clear
7:55 AM 15.3 °F 7.9 °F 7.0 °F 70% 30.40 in 10.0 mi NNE 4.6 mph - N/A   Partly Cloudy
8:55 AM 16.7 °F 8.3 °F 7.3 °F 67% 30.40 in 10.0 mi North 5.8 mph - N/A   Partly Cloudy
9:55 AM 18.9 °F 8.8 °F 6.8 °F 59% 30.42 in 10.0 mi NNE 8.1 mph - N/A   Partly Cloudy
10:55 AM 19.6 °F 11.7 °F 5.0 °F 53% 30.45 in 10.0 mi NE 5.8 mph - N/A   Overcast
11:55 AM 20.5 °F 12.8 °F 4.3 °F 50% 30.47 in 10.0 mi North 5.8 mph - N/A   Overcast
12:55 PM 20.7 °F 11.9 °F 3.0 °F 47% 30.44 in 10.0 mi NNW 6.9 mph - N/A   Overcast
1:55 PM 20.8 °F 12.1 °F 4.5 °F 49% 30.44 in 10.0 mi North 6.9 mph - N/A   Overcast
2:55 PM 20.7 °F 8.8 °F 4.5 °F 50% 30.44 in 10.0 mi NNW 11.5 mph - N/A   Overcast
3:55 PM 19.9 °F 10.1 °F 8.1 °F 60% 30.44 in 10.0 mi North 8.1 mph - N/A   Overcast
4:55 PM 19.4 °F 10.4 °F 10.0 °F 67% 30.44 in 10.0 mi North 6.9 mph - N/A   Overcast
5:55 PM 16.7 °F 7.2 °F 10.0 °F 75% 30.45 in 10.0 mi North 6.9 mph - N/A   Partly Cloudy
6:55 PM 15.8 °F 7.2 °F 9.5 °F 76% 30.47 in 10.0 mi NNW 5.8 mph - N/A   Clear
7:55 PM 11.1 °F 3.1 °F 7.2 °F 84% 30.46 in 10.0 mi NW 4.6 mph - N/A   Clear
8:55 PM 15.4 °F 6.8 °F 9.1 °F 76% 30.46 in 10.0 mi North 5.8 mph - N/A   Clear
9:32 PM 14.0 °F 2.9 °F 8.6 °F 79% 30.48 in 10.0 mi North 8.1 mph - N/A Snow Light Snow
9:53 PM 14.0 °F 2.9 °F 8.6 °F 79% 30.47 in 10.0 mi NNW 8.1 mph - N/A   Overcast
9:55 PM 14.7 °F 4.8 °F 8.2 °F 75% 30.47 in 10.0 mi NNW 6.9 mph - 0.00 in   Overcast
10:55 PM 13.5 °F 5.8 °F 8.1 °F 79% 30.46 in 10.0 mi WNW 4.6 mph - N/A   Mostly Cloudy
11:40 PM 14.0 °F 6.5 °F 8.6 °F 79% 30.46 in 10.0 mi West 4.6 mph - N/A   Overcast
11:55 PM 15.1 °F 7.7 °F 9.0 °F 77% 30.46 in 10.0 mi West 4.6 mph - N/A   Overcast